sat.trackr.live / text

‹ back to catalog

STARLINK-3143

NORAD 49738 · 2021-115Q

PAYLOAD ACTIVE UNKNOWN

§ Identity

Operator
Country
US
Launch date
2021-12-02
Launch site
AFETR
Launch vehicle
Mass (kg)
RCS (m²)

Purposes: comms

External: N2YO · Heavens-Above · Gunter

§ Orbital elements

Epoch: 2026-09-19T18:34:07.969440Z

Period
95.12 min
Inclination
53.2156°
Eccentricity
0.0001239
Mean motion
15.13866663 rev/d
Perigee alt
523.6 km
Apogee alt
525.3 km
Semi-major
6,902.6 km
B*
7.4932e-4
RAAN
355.1774°
Arg perigee
79.3713°
Mean anomaly
280.7420°
Rev number
26,487

§ Raw data

STARLINK-31431 49738U 21115Q   26262.77370335  .00013434  00000+0  74932-3 0  99962 49738  53.2156 355.1774 0001239  79.3713 280.7420 15.13866663264877

JSON: /api/v1/satellites/49738 · /tle

For live sub-satellite position, see the globe view (requires WebGL).

§ Visibility from observer

Set your observer location to see the next 7 days of passes ≥ 10°. The values pass through the URL so the page stays shareable.

No JS? Fill the form by hand. The geolocation button needs JavaScript.